Погода в Токмаке

Погода в Токмаке : погода сейчас, прогноз погоды и архив. Всё, что Вы хотите узнать о погоде в Токмаке!

Поиск расширенной информации на нашем сайте:

Другие новости

Новости СМИ2

Главная страница сайта

Новости сайта

03.07.2017

Напоминаем, что на нашем специализированном сайте Метеоцентр.Азия вы можете получить высокодетализированные автоматические прогнозы погоды по пунктам России, СНГ и мира в авиационном формате (включающие направление и скорость ветра, видимость, явления погоды, количество и форму облачности, нижнюю и верхнюю границу облачности).


Погода в Токмаке - сегодня

Время (UTC), дата Ветер
(°,м/с) 
Видим.   Явления Облачность Т
(°С)
Тd
(°С)
f(%) Тe
(°С)
Pmin
(гПа)
dP
(гПа)
Po
(мм)
O2
(г/м3)
Тmin Tmax R s Состояние
почвы
18 21.09.17 тихо ()   н/о    ясно 
+13.4 +4 53 +13  1014.5  -0.4  691  265    +26.6       
21 21.09.17 090 (В) н/о    ясно 
+12.9 +3.6 53 +13  1013.2  -0.8  691  265           
00 22.09.17 070 (В) н/о    ясно 
+13.6 +4.3 53 +15  1013  -0.5  690  264           
03 22.09.17 070 (В) 20000 м    ясно 
+16.3 +4.1 44 +17  1012.4  0.3  751  285           
06 22.09.17 270 (З) 20000 м    1/1 1000 м 
[Cu hum]
+24.5 +2.9 24 +25  1008.8  -0.9  690  254  +12.5         
09 22.09.17 320 (СЗ) 20000 м    1/1 1000 м 
[Cu hum]
+27.9 +3.8 21 +28  1006.8  -0.9  689  251           
12 22.09.17 230 (ЮЗ) 20000 м    ясно 
+25.5 +5 27 +26  1007.8  0.4  689  253           
15 22.09.17 тихо ()   н/о    ясно 
+16.1 +5.3 49 +16  1012.1  1.2  690  262    +28.7       
18 22.09.17 090 (В) н/о    ясно 
+14.2 +2.5 45 +15  1012.4  -0.5  690  264    +28.7       
21 22.09.17 070 (В) н/о    3/0 средняя 
[Ac trans]
+14.6 +0.9 39 +15  1011.3  -0.8  689  263           
00 23.09.17 090 (В) н/о    ясно 
+14 +0.9 41 +15  1011.9  0.4  690  264           
03 23.09.17 090 (В) 20000 м    ясно верхняя 
[Ci fib]
+17 +4.3 43 +18  1012  751  284           
06 23.09.17 250 (З) 20000 м    3/0 верхняя 
[Ci fib]
+24.8 +3.4 25 +25  1009.8  0.2  690  254  +13.8         
09 23.09.17 250 (З) 20000 м    ясно 
+26.6 +6.4 28 +27  1009.3  0.1  691  252           
12 23.09.17 250 (З) 20000 м    9/6 1000 м кучево-дожд., средняя 
[Cb calv|Ac cuf]
+22.4 +6.4 35 +22  1011.8  1.1  691  256           
15 23.09.17 270 (З) н/о    10/8 600 м кучево-дожд., средняя 
[Cb calv|Ac cuf]
+19 +7 46 +20  1016  2.9  694  260           
18 23.09.17 250 (З) н/о    10/6 600 м кучево-дожд., средняя 
[Cb calv|Ac cuf]
+16.2 +7.4 56 +17  1017.6  0.6  694  263    +27.3       
21 23.09.17 тихо ()   н/о    10/8 600 м кучево-дожд., средняя 
[Cb calv|Ac und]
+12.4 +6.5 67 +12  1020.4  1.4  695  267           
00 24.09.17 290 (З) н/о    10/10 600 м кучево-дожд. 
[Cb calv]
+10.4 +5.6 72 +12  1021.9  0.7  696  269           
03 24.09.17 тихо ()   20000 м    10/10 600 м кучево-дожд. 
[Cb calv]
+11 +4.8 66 +11  1022.5  0.7  696  269           
06 24.09.17 250 (З) 20000 м    9/9 600 м кучево-дожд. 
[Cb calv]
+14.2 +6.8 61 +15  1020.9  -0.4  696  265  +10.2         
09 24.09.17 230 (ЮЗ) 20000 м    3/0 верхняя 
[Ci ing]
+17.7 +6.4 47 +19  1019.1  -0.6  695  262           
12 24.09.17 290 (З) 20000 м    8/0 средняя 
[Ac cuf]
+16.2 +3.6 43 +18  1020.4  0.7  696  264    +1.7       
15 24.09.17 тихо ()   н/о    3/0 средняя 
[Ac lent]
+10.8 +3.2 59 +11  1023.3  0.9  697  269    +18.6       
18 24.09.17 тихо ()   н/о    ясно 
+8.6 +2.7 66 +9  1022.3  -1.6  695  271    +18.6       
Время (UTC), дата Ветер
(°,м/с) 
Видим.   Явления Облачность Т
(°С)
Тd
(°С)
f(%) Тe
(°С)
Pmin
(гПа)
dP
(гПа)
Po
(мм)
O2
(г/м3)
Тmin Tmax R s Состояние
почвы

Для получения пояснительной информации подведите курсор к названию столбца.

ПОГОДА в Токмаке - архив

Всё, что Вы хотите узнать о погоде в Токмаке - удобно и подробно!

Выберите нужную дату (начиная с 1 января 2015* года) и нажмите кнопку "Найти".
Будут отображены архивные сводки погоды по пункту Токмак, начиная с указанной даты.


Отображать данные в формате CSV (для использования в таблицах Excel)


Внимание! Наш архив погоды предназначен исключительно для личного некоммерческого использования в познавательных целях. Если Вам необходимы официальные справки о состоянии погоды (для производственных, юридических, коммерческих и т.п. целей), обращайтесь в органы Росгидромета.

*Примечание: данная дата относится к архиву по метеостанциям СССР (Россия, СНГ, Балтия).
Архив по метеостанциям Зарубежной Европы и Азии (кроме Китая) хранится 10 дней, по другим регионам земного шара (Китай, Африка, Америка, Австралия, Океания) - 1 день.

Токмак - район местоположения метеостанции


Название, широта, долгота, высота метеостанции:
Токмак 42.8°ш. 75.3°д. 817 м над ур. моря [Кыргызстан]

Дополнительная информация

В oтличие oт бoльшинства пoгoдных сайтoв мы публикуем пoдрoбную метеoинфoрмацию в детальнoм прoфессиoнальнoм фoрмате.

Характеристики температуры и влажнoсти вoздуха измеряются на высoте 2 м в тени вдали oт зданий и деревьев.
Скoрoсть ветра измеряется на высoте 10 м (на урoвне рoста челoвека скoрoсть ветра ниже в 1.5-2 раза). Если метеoстанция нахoдится в гoрoде или в лесу, тo скoрoсть ветра занижена на 2-4 м/с пo сравнению с oткрытым местoм. Скoрoсть ветра над акватoриями крупных рек и oзёр, а также на вершинах хoлмoв на 2-5 м/с выше, чем в oбычных услoвиях.
Атмoсфернoе давление в разных тoчках местнoсти мoжет значительнo oтличаться oт давления на метеoстанции, в зависимoсти oт услoвий рельефа (при пoдъёме на 10 м давление пoнижается примернo на 1 мм рт.ст.).